Flag for Brazil Weather past 2 weeks in Cruzeiro do Sul, Acre, Brazil

Now
90 °F

Passing clouds.


Feels Like: 100 °F
Forecast: N/A
Wind: 8 mph from Northwest

Location: Cruzeiro Do Sul Airport

Current Time: Dec 18, 2014 at 4:45:09 PM

Latest Report: Dec 18, 2014 at 4:00 PM


Visibility: N/A

Pressure: 29.71 "Hg

Humidity: 63%

Dew point: 75 °F

Location of Cruzeiro do SulLocation

Historic Weather in Cruzeiro do Sul — Graph

°F

Cruzeiro do Sul temperature yesterday

Maximum temperature yesterday: 90 °F (at 1:00 PM)
Minimum temperature yesterday: 75 °F (at 1:00 AM)
Average temperature yesterday: 82 °F

Past Weeks' High & Low Weather Summary

 TemperatureHumidityPressure
High97 °F (Dec 15, 9:00 AM)100% (Dec 3, 3:00 PM)29.98 "Hg (Dec 3, 3:00 PM)
Low43 °F (Dec 8, 3:00 PM)53% (Dec 15, 9:00 AM)29.65 "Hg (Dec 7, 4:00 PM)
Average80 °F91%29.82 "Hg
* Reported Dec 3 3:00 PM — Dec 18 3:00 PM, Cruzeiro do Sul, Weather by CustomWeather, © 2014

Note: Actual official high and low records may vary slightly from our data, if they occured in-between our weather recording intervals... More about our weather records

Advertising

Cruzeiro do Sul weather history for previous 24 hours

 ConditionsComfort  
Time TempWeatherWind HumidityBarometerVisibility
3:00 PM
Dec 18
88 °FScattered clouds.5 mph66%29.74 "HgN/A
2:00 PM90 °FPartly sunny.6 mph63%29.77 "HgN/A
1:00 PM88 °FScattered clouds.6 mph66%29.83 "HgN/A
12:00 PM88 °FScattered clouds.8 mph66%29.89 "HgN/A
11:00 AM86 °FPartly sunny.8 mph75%29.92 "HgN/A
10:00 AM81 °FPartly sunny.8 mph89%29.92 "HgN/A
9:00 AM81 °FOvercast.9 mph89%29.95 "HgN/A
8:00 AM79 °FPartly sunny.6 mph94%29.92 "HgN/A
7:00 AM75 °FPartly sunny.2 mph100%29.89 "HgN/A
6:00 AM75 °FClear.No wind100%29.83 "Hg10 mi
5:00 AM75 °FClear.No wind100%29.80 "Hg10 mi
4:00 AM75 °FClear.No wind100%29.80 "Hg10 mi
3:00 AM75 °FClear.No wind100%29.80 "Hg10 mi
2:00 AM75 °FLight rain. Partly cloudy.No wind100%N/A4 mi
1:00 AM77 °FPassing clouds.No wind100%29.83 "Hg5 mi
6:00 PM
Dec 17
84 °FPassing clouds.No wind89%29.74 "HgN/A
5:00 PM86 °FScattered clouds.2 mph79%29.74 "HgN/A
4:00 PM90 °FScattered showers. Scattered clouds.6 mph67%29.74 "HgN/A
Weather by CustomWeather, © 2014

See weather overviewHow to use our weather pages